This is the latest recevied weather packets stored in our database for station/object K5NWZ. If no packets are shown the sender has not sent any weather packets the latest 10 day(s).
| Time | Temp. | Humidity | Pressure | Rain* | Wind** | Luminosity | Snow |
|---|---|---|---|---|---|---|---|
| 1777738129 | 16.67° C | 26% | 1030.3 hPa | 0 mm | - | 592 W/m² | - |
| 1777737827 | 15.56° C | 27% | 1030.4 hPa | 0 mm | - | 581 W/m² | - |
| 1777737525 | 15.56° C | 28% | 1030.5 hPa | 0 mm | - | 571 W/m² | - |
| 1777737223 | 15.56° C | 29% | 1030.4 hPa | 0 mm | - | 556 W/m² | - |
| 1777736919 | 14.44° C | 29% | 1030.8 hPa | 0 mm | - | 541 W/m² | - |
| 1777736310 | 14.44° C | 31% | 1030.5 hPa | 0 mm | - | 514 W/m² | - |
| 1777736007 | 13.89° C | 33% | 1030.6 hPa | 0 mm | - | 498 W/m² | - |
| 1777735705 | 14.44° C | 32% | 1030.6 hPa | 0 mm | - | 484 W/m² | - |
| 1777735402 | 13.89° C | 32% | 1030.6 hPa | 0 mm | - | 470 W/m² | - |
| 1777735100 | 12.78° C | 34% | 1030.9 hPa | 0 mm | - | 456 W/m² | - |
| 1777734796 | 12.78° C | 35% | 1031 hPa | 0 mm | - | 440 W/m² | - |
| 1777734494 | 12.78° C | 36% | 1031 hPa | 0 mm | - | 425 W/m² | - |
| 1777734190 | 12.22° C | 38% | 1031 hPa | 0 mm | - | 410 W/m² | - |
| 1777733886 | 11.67° C | 39% | 1030.9 hPa | 0 mm | - | 397 W/m² | - |
| 1777733583 | 11.11° C | 39% | 1031.1 hPa | 0 mm | - | 383 W/m² | - |
| 1777733279 | 10.56° C | 40% | 1031.2 hPa | 0 mm | - | 368 W/m² | - |
| 1777732977 | 10.56° C | 40% | 1031.1 hPa | 0 mm | - | 353 W/m² | - |
| 1777732672 | 11.11° C | 39% | 1031.1 hPa | 0 mm | - | 339 W/m² | - |
| 1777732370 | 10.56° C | 41% | 1031 hPa | 0 mm | - | 325 W/m² | - |
| 1777732067 | 10.56° C | 41% | 1031.2 hPa | 0 mm | - | 311 W/m² | - |
| 1777731764 | 10° C | 43% | 1031.2 hPa | 0 mm | - | 294 W/m² | - |
| 1777731461 | 8.89° C | 45% | 1031 hPa | 0 mm | - | 281 W/m² | - |
| 1777731159 | 8.33° C | 46% | 1031.1 hPa | 0 mm | - | 267 W/m² | - |
| 1777730857 | 8.33° C | 47% | 1031.2 hPa | 0 mm | - | 252 W/m² | - |
| 1777730555 | 8.33° C | 46% | 1031.2 hPa | 0 mm | - | 238 W/m² | - |
* Rain latest hour (hover to see other rain measurements)
** Current wind speed in m/s (hover to see current wind gust speed)